When you browse on this site, cookies collect data to enhance your experience and personalize the content and advertising you see.
Visit our Privacy Policy to learn more. By continuing to use the site, you agree to this use of cookies and data.
  • In Austria
  • List of Countries
  • For 7 days
  • Water Temperature
  • Weather Map
  • News
  • Weather Widgets
  • user-avatar
    Login

    Hourly Weather Tlahuelilpan

    Today, 15 November, Friday

    Time Temperature Precipitation Wind Pressure Humidity
    00:00 +14°C° 0 mm 2 mps 598 mmHg 87%
    01:00 +13°C° 0 mm 2 mps 598 mmHg 86%
    02:00 +13°C° 0 mm 1 mps 598 mmHg 85%
    03:00 +13°C° 0 mm 1 mps 598 mmHg 86%
    04:00 +13°C° 0 mm 1 mps 598 mmHg 86%
    05:00 +13°C° 0 mm 1 mps 598 mmHg 87%
    06:00 +13°C° 0 mm 1 mps 599 mmHg 86%
    07:00 +13°C° 0 mm 1 mps 599 mmHg 86%
    08:00 +14°C° 0 mm 2 mps 599 mmHg 85%
    09:00 +14°C° 0 mm 2 mps 600 mmHg 81%
    10:00 +15°C° 0 mm 2 mps 600 mmHg 76%
    11:00 +16°C° 0 mm 3 mps 600 mmHg 72%
    12:00 +16°C° 0 mm 3 mps 599 mmHg 72%
    13:00 +16°C° 0 mm 3 mps 599 mmHg 71%
    14:00 +16°C° 0 mm 3 mps 598 mmHg 71%
    15:00 +14°C° 0 mm 3 mps 598 mmHg 74%
    16:00 +13°C° 0 mm 3 mps 598 mmHg 77%
    17:00 +12°C° 0 mm 3 mps 597 mmHg 81%
    18:00 +13°C° 0 mm 2 mps 598 mmHg 82%
    19:00 +12°C° 0 mm 2 mps 598 mmHg 84%
    20:00 +12°C° 0 mm 2 mps 598 mmHg 86%
    21:00 +12°C° 0 mm 1 mps 598 mmHg 86%
    22:00 +12°C° 0 mm 1 mps 598 mmHg 86%
    23:00 +12°C° 0 mm 1 mps 598 mmHg 85%

    Tomorrow, 16 November, Saturday

    Time Temperature Precipitation Wind Pressure Humidity
    00:00 +12°C° 0 mm 1 mps 597 mmHg 86%
    01:00 +12°C° 0 mm 1 mps 597 mmHg 86%
    02:00 +12°C° 0 mm 1 mps 597 mmHg 86%
    03:00 +11°C° 0.1 mm 0 mps 597 mmHg 86%
    04:00 +11°C° 0.1 mm 0 mps 597 mmHg 86%
    05:00 +11°C° 0.1 mm 0 mps 597 mmHg 86%
    06:00 +12°C° 0.1 mm 0 mps 597 mmHg 85%
    07:00 +12°C° 0.1 mm 0 mps 598 mmHg 84%
    08:00 +13°C° 0.1 mm 0 mps 598 mmHg 82%
    09:00 +15°C° 0 mm 1 mps 598 mmHg 76%
    10:00 +18°C° 0 mm 1 mps 599 mmHg 69%
    11:00 +20°C° 0 mm 1 mps 599 mmHg 62%
    12:00 +19°C° 0.1 mm 2 mps 598 mmHg 61%
    13:00 +20°C° 0.1 mm 3 mps 598 mmHg 60%
    14:00 +20°C° 0.1 mm 3 mps 597 mmHg 59%
    15:00 +19°C° 0.1 mm 3 mps 597 mmHg 62%
    16:00 +18°C° 0.1 mm 3 mps 597 mmHg 66%
    17:00 +17°C° 0.1 mm 2 mps 597 mmHg 69%
    18:00 +17°C° 0 mm 2 mps 597 mmHg 74%
    19:00 +16°C° 0 mm 1 mps 597 mmHg 78%
    20:00 +15°C° 0 mm 1 mps 597 mmHg 82%
    21:00 +15°C° 0 mm 1 mps 597 mmHg 83%
    22:00 +14°C° 0 mm 0 mps 597 mmHg 84%
    23:00 +14°C° 0 mm 0 mps 597 mmHg 85%

    Day after tomorrow, 17 November, Sunday

    Time Temperature Precipitation Wind Pressure Humidity
    00:00 +14°C° 0 mm 0 mps 596 mmHg 87%
    01:00 +13°C° 0 mm 0 mps 596 mmHg 88%
    02:00 +13°C° 0 mm 0 mps 595 mmHg 90%
    03:00 +12°C° 0 mm 0 mps 595 mmHg 90%
    04:00 +12°C° 0 mm 0 mps 595 mmHg 90%
    05:00 +12°C° 0 mm 0 mps 595 mmHg 89%
    06:00 +13°C° 0 mm 0 mps 596 mmHg 83%
    07:00 +15°C° 0 mm 0 mps 597 mmHg 76%
    08:00 +18°C° 0 mm 1 mps 598 mmHg 69%
    09:00 +20°C° 0 mm 1 mps 598 mmHg 61%
    10:00 +20°C° 0 mm 2 mps 598 mmHg 54%
    11:00 +22°C° 0 mm 3 mps 598 mmHg 46%
    12:00 +22°C° 0 mm 3 mps 598 mmHg 45%
    13:00 +22°C° 0 mm 4 mps 597 mmHg 45%
    14:00 +22°C° 0 mm 4 mps 597 mmHg 44%
    15:00 +21°C° 0.1 mm 4 mps 596 mmHg 51%
    16:00 +20°C° 0.1 mm 3 mps 596 mmHg 59%
    17:00 +18°C° 0.1 mm 3 mps 596 mmHg 67%
    18:00 +18°C° 0 mm 2 mps 596 mmHg 70%
    19:00 +17°C° 0 mm 2 mps 596 mmHg 73%
    20:00 +18°C° 0 mm 1 mps 596 mmHg 76%
    21:00 +16°C° 0 mm 1 mps 596 mmHg 78%
    22:00 +16°C° 0 mm 1 mps 596 mmHg 80%
    23:00 +14°C° 0 mm 0 mps 596 mmHg 82%

    18 November, Monday

    Time Temperature Precipitation Wind Pressure Humidity
    00:00 +14°C° 0 mm 0 mps 596 mmHg 81%
    01:00 +14°C° 0 mm 0 mps 595 mmHg 81%
    02:00 +14°C° 0 mm 0 mps 595 mmHg 81%
    03:00 +13°C° 0 mm 0 mps 595 mmHg 83%
    04:00 +13°C° 0 mm 0 mps 595 mmHg 86%
    05:00 +12°C° 0 mm 0 mps 595 mmHg 88%
    06:00 +13°C° 0 mm 0 mps 595 mmHg 82%
    07:00 +14°C° 0 mm 0 mps 596 mmHg 76%
    08:00 +15°C° 0 mm 0 mps 597 mmHg 70%
    09:00 +19°C° 0 mm 1 mps 597 mmHg 65%
    10:00 +20°C° 0 mm 1 mps 597 mmHg 59%
    11:00 +20°C° 0 mm 2 mps 597 mmHg 53%
    12:00 +21°C° 0.2 mm 2 mps 596 mmHg 51%
    13:00 +21°C° 0.2 mm 3 mps 596 mmHg 50%
    14:00 +21°C° 0.2 mm 3 mps 595 mmHg 49%
    15:00 +20°C° 0.1 mm 3 mps 595 mmHg 53%
    16:00 +19°C° 0.1 mm 2 mps 595 mmHg 57%
    17:00 +19°C° 0.1 mm 1 mps 595 mmHg 62%
    18:00 +19°C° 0 mm 1 mps 596 mmHg 65%
    19:00 +18°C° 0 mm 1 mps 596 mmHg 69%
    20:00 +18°C° 0 mm 1 mps 596 mmHg 72%
    21:00 +15°C° 0 mm 0 mps 596 mmHg 75%
    22:00 +14°C° 0 mm 0 mps 595 mmHg 79%
    23:00 +14°C° 0 mm 0 mps 595 mmHg 82%

    19 November, Tuesday

    Time Temperature Precipitation Wind Pressure Humidity
    00:00 +13°C° 0 mm 0 mps 595 mmHg 83%
    01:00 +13°C° 0 mm 0 mps 595 mmHg 84%
    02:00 +12°C° 0 mm 0 mps 594 mmHg 86%
    03:00 +12°C° 0 mm 0 mps 594 mmHg 86%
    04:00 +12°C° 0 mm 0 mps 595 mmHg 87%
    05:00 +11°C° 0 mm 0 mps 595 mmHg 87%
    06:00 +14°C° 0 mm 1 mps 596 mmHg 82%
    07:00 +15°C° 0 mm 1 mps 596 mmHg 76%
    08:00 +16°C° 0 mm 1 mps 597 mmHg 71%
    09:00 +17°C° 0 mm 2 mps 597 mmHg 66%
    10:00 +18°C° 0 mm 3 mps 598 mmHg 60%
    11:00 +20°C° 0 mm 3 mps 598 mmHg 55%
    12:00 +20°C° 0 mm 4 mps 597 mmHg 54%
    13:00 +20°C° 0 mm 4 mps 597 mmHg 53%
    14:00 +20°C° 0 mm 4 mps 596 mmHg 53%
    15:00 +18°C° 0 mm 4 mps 596 mmHg 57%
    16:00 +17°C° 0 mm 3 mps 596 mmHg 60%
    17:00 +16°C° 0 mm 3 mps 596 mmHg 64%
    18:00 +15°C° 0 mm 2 mps 596 mmHg 69%
    19:00 +14°C° 0 mm 2 mps 596 mmHg 73%
    20:00 +13°C° 0 mm 1 mps 596 mmHg 77%
    21:00 +13°C° 0 mm 1 mps 596 mmHg 80%
    22:00 +13°C° 0 mm 1 mps 596 mmHg 83%
    23:00 +11°C° 0 mm 0 mps 596 mmHg 87%

    20 November, Wednesday

    Time Temperature Precipitation Wind Pressure Humidity
    00:00 +11°C° 0 mm 0 mps 595 mmHg 88%
    01:00 +11°C° 0 mm 0 mps 595 mmHg 89%
    02:00 +10°C° 0 mm 0 mps 594 mmHg 90%
    03:00 +10°C° 0 mm 0 mps 594 mmHg 89%
    04:00 +11°C° 0 mm 1 mps 595 mmHg 88%
    05:00 +11°C° 0 mm 1 mps 595 mmHg 88%
    06:00 +13°C° 0 mm 1 mps 596 mmHg 81%
    07:00 +14°C° 0 mm 1 mps 597 mmHg 74%
    08:00 +16°C° 0 mm 1 mps 598 mmHg 67%
    09:00 +19°C° 0 mm 1 mps 598 mmHg 61%
    10:00 +20°C° 0 mm 1 mps 598 mmHg 56%
    11:00 +22°C° 0 mm 1 mps 598 mmHg 51%
    12:00 +22°C° 0 mm 1 mps 598 mmHg 50%
    13:00 +23°C° 0 mm 2 mps 597 mmHg 49%
    14:00 +22°C° 0 mm 3 mps 597 mmHg 48%
    15:00 +21°C° 0 mm 3 mps 597 mmHg 54%
    16:00 +20°C° 0 mm 2 mps 596 mmHg 60%
    17:00 +18°C° 0 mm 2 mps 596 mmHg 66%
    18:00 +18°C° 0.1 mm 2 mps 596 mmHg 73%
    19:00 +18°C° 0.1 mm 1 mps 597 mmHg 79%
    20:00 +16°C° 0.1 mm 1 mps 597 mmHg 86%
    21:00 +16°C° 0 mm 1 mps 597 mmHg 86%
    22:00 +14°C° 0 mm 0 mps 597 mmHg 87%
    23:00 +14°C° 0 mm 0 mps 597 mmHg 87%
    Show more